Voltar ao catálogo

SL-14 DEB

AtivoPO
NORAD 19178·DEBRIS·🇷🇺 Russia

Lançado Oct 26, 1978 de Plesetsk Cosmodrome

Loading…

Próximas Passagens (próximas 24 horas)

TLE

AtualizadoSource: Space-Track

Época: Sep 13, 2026, 07:46 UTC

1 19178U 78100U   26256.32369466 -.00000084  00000-0 -91998-3 0  9995
2 19178  82.1164   4.1543 0036863 209.5637 176.2329 12.17903252696637

Acompanhe SL-14 DEB em tempo real com AllMySat

Download on the App Store